Fes-Sais, Morocco

9:35 AM WET on May 26, 2017 (GMT +0000)
Fes-Sais

Weather History for GMFF - November, 2011

Change the Weather History Date:

Sunday, November 27, 2011

  Actual Average Record
Temperature  
Mean Temperature 55 °F -  
Max Temperature 62 °F 60 °F 75 °F (2000)
Min Temperature 48 °F 40 °F 31 °F (2013)
Degree Days  
Heating Degree Days 10    
Growing Degree Days 5 (Base 50)    
Moisture  
Dew Point 47 °F    
Average Humidity 77    
Maximum Humidity 93    
Minimum Humidity 43    
Precipitation  
Precipitation 0.00 in 0.11 in - ()
Sea Level Pressure  
Sea Level Pressure 30.21 in    
Wind  
Wind Speed 4 mph ()    
Max Wind Speed 10 mph    
Max Gust Speed -    
Visibility 6.2 miles    
Events Rain    
Averages and records for this station are not official NWS values.
T = Trace of Precipitation, MM = Missing Value Source: Averaged Metar Reports

Daily Weather History Graph

Daily Weather History Graph

Search for Another Location

Airport or City:

Trip Planner

Search our weather history database for the weather conditions in past years. The results will help you decide how hot, cold, wet, or windy it might be!

Date:

Astronomy

Nov. 27, 2011 Rise Set
Actual Time 7:03 AM WET 5:11 PM WET
Civil Twilight 6:35 AM WET 5:38 PM WET
Nautical Twilight 6:05 AM WET 6:09 PM WET
Astronomical Twilight 5:35 AM WET 6:39 PM WET
Moon 9:14 AM WET (11/27) 7:35 PM WET (11/27)
Length of Visible Light 11h 02m
Length of Day
10h 08m
Waxing Crescent, 7% of the Moon is Illuminated
Nov 27
Waxing Crescent
Dec 2
First Quarter
Dec 10
Full
Dec 18
Last Quarter
Dec 24
New

Hourly Weather History & Observations

Time (WET) Temp. Dew Point Humidity Pressure Visibility Wind Dir Wind Speed Gust Speed Precip Events Conditions
12:00 AM 50 °F 45 °F 75% 30.27 in 6 mi East 2.3 mph - -   Partly Cloudy
12:00 AM 50.0 °F 44.6 °F 82% 30.24 in 6.2 mi East 2.3 mph - N/A   Scattered Clouds
1:00 AM 50.0 °F 46.4 °F 87% 30.24 in 6.2 mi ENE 3.5 mph - N/A   Mostly Cloudy
2:00 AM 50.0 °F 46.4 °F 87% 30.24 in 6.2 mi East 4.6 mph - N/A   Mostly Cloudy
3:00 AM 49 °F 46 °F 87% 30.24 in 6 mi East 8.1 mph - - Rain Light Rain
3:00 AM 50.0 °F 46.4 °F 87% 30.21 in 6.2 mi ESE 8.1 mph - N/A   Mostly Cloudy
4:00 AM 48.2 °F 46.4 °F 93% 30.21 in 6.2 mi ESE 10.4 mph - N/A   Mostly Cloudy
5:00 AM 50.0 °F 46.4 °F 87% 30.21 in 6.2 mi ESE 1.2 mph - N/A Rain Light Rain
6:00 AM 49 °F 45 °F 79% 30.22 in 6 mi ESE 10.4 mph - - Rain Light Rain
6:00 AM 50.0 °F 44.6 °F 82% 30.18 in 6.2 mi ESE 10.4 mph - N/A   Mostly Cloudy
7:00 AM 50.0 °F 44.6 °F 82% 30.21 in 6.2 mi ESE 6.9 mph - N/A   Mostly Cloudy
8:00 AM 50.0 °F 44.6 °F 82% 30.21 in 6.2 mi Calm Calm - N/A   Mostly Cloudy
9:00 AM 53.6 °F 48.2 °F 82% 30.24 in 6.2 mi Calm Calm - N/A   Mostly Cloudy
10:00 AM 57.2 °F 46.4 °F 67% 30.24 in 6.2 mi ESE 9.2 mph - N/A   Scattered Clouds
11:00 AM 55.4 °F 46.4 °F 72% 30.21 in 6.2 mi East 9.2 mph - N/A   Scattered Clouds
12:00 PM 61 °F 44 °F 43% 30.18 in 6 mi NE 6.9 mph - -   Partly Cloudy
12:00 PM 60.8 °F 44.6 °F 55% 30.21 in 6.2 mi NE 6.9 mph - N/A   Scattered Clouds
1:00 PM 62.6 °F 46.4 °F 55% 30.18 in 6.2 mi East 4.6 mph - N/A   Scattered Clouds
2:00 PM 62.6 °F 48.2 °F 59% 30.18 in 6.2 mi ENE 4.6 mph - N/A   Scattered Clouds
3:00 PM 59.0 °F 46.4 °F 63% 30.15 in 6.2 mi NE 9.2 mph - N/A   Mostly Cloudy
4:00 PM 57.2 °F 46.4 °F 67% 30.15 in 6.2 mi NE 6.9 mph - N/A   Mostly Cloudy
5:00 PM 57.2 °F 48.2 °F 72% 30.18 in 6.2 mi NE 2.3 mph - N/A   Mostly Cloudy
6:00 PM 54 °F 50 °F 81% 30.19 in 6 mi Calm Calm - -   Mostly Cloudy
6:00 PM 55.4 °F 50.0 °F 82% 30.18 in 6.2 mi Calm Calm - N/A   Mostly Cloudy
7:00 PM 55.4 °F 50.0 °F 82% 30.18 in 6.2 mi South 2.3 mph - N/A   Mostly Cloudy
8:00 PM 53.6 °F 50.0 °F 88% 30.18 in 6.2 mi SSE 3.5 mph - N/A   Scattered Clouds
9:00 PM 53 °F 48 °F 77% 30.21 in 6 mi ESE 5.8 mph - -   Partly Cloudy
9:00 PM 53.6 °F 48.2 °F 82% 30.21 in 6.2 mi ESE 5.8 mph - N/A   Scattered Clouds
10:00 PM 51.8 °F 48.2 °F 88% 30.21 in 6.2 mi SE 5.8 mph - N/A   Scattered Clouds
11:00 PM 50.0 °F 46.4 °F 87% 30.21 in 6.2 mi Calm Calm - N/A   Scattered Clouds